Content
SEND FEEDBACK

Daily
Averages
Monthly
Summary
United States of America

BOSTON, MASSACHUSETTS


Home > North America > United States > Massachusetts
Elevation: 4 feet     Latitude: 42 22N     Longitude: 071 02W

WEATHER
 
SELECT A DAY
Number of Records: 202,493;   Date Range: 1/1/95 - 7/23/14
 
SHARE

PRINT THIS DATA

[ ← Previous Day ]
WEATHER ALMANAC - JULY 11, 2013
[ Next Day → ]
[ °C ]   °F
Weather ElementAverageHighLow
Temperature77.3 °F81 °F (4:54 pm)73.9 °F (4:54 am)
Dewpoint70.1 °F72 °F (7:54 am)68 °F (8:41 pm)
Humidity78.7 %91 % (4:54 am)67 % (4:54 pm)
Barometer29.84 in29.92 in (11:54 pm)29.78 in (1:54 am)
Wind Speed7.9 mph13.8 mph (3:54 am)
Wind Gust20.7 mph (9:54 am)
Weather ElementAverage
Visibility9.1 mi
Wind DirectionWSW (237.9 °)

Weather ElementTotal
Precipitation0.20 in
Cooling Degree Days12.5 (Base 65)
Growing Degree Days27.5 (Base 50)
Averaged from 24 records on July 11, 2013
WEATHER CONDITIONS BREAKOUT
WIND DIRECTION BREAKOUT
WEATHER BY HOUR - JULY 11, 2013
[ °C ]   °F
Local TimeTemperatureDewpointHumidityBarometerVisibilityWind DirectionWind SpeedGust SpeedPrecipitationEventsConditions
1:54 AM75.0 °F71.1 °F87 %29.78 in10.0 miSW (220°)8.1 mphMostly Cloudy
2:54 AM75.0 °F71.1 °F87 %29.78 in10.0 miSW (220°)9.2 mphMostly Cloudy
3:54 AM75.0 °F71.1 °F87 %29.78 in10.0 miSW (220°)13.8 mphPartly Cloudy
4:54 AM73.9 °F71.1 °F91 %29.79 in9.0 miWSW (240°)10.4 mphPartly Cloudy
5:54 AM75.0 °F71.1 °F87 %29.80 in8.0 miWSW (250°)10.4 mphMostly Cloudy
6:54 AM75.9 °F71.1 °F85 %29.81 in9.0 miSW (220°)5.8 mphMostly Cloudy
7:54 AM78.1 °F72.0 °F81 %29.80 in8.0 miWSW (240°)8.1 mphMostly Cloudy
8:54 AM79.0 °F72.0 °F79 %29.82 in10.0 miSW (230°)11.5 mphMostly Cloudy
9:54 AM78.1 °F72.0 °F81 %29.83 in7.0 miWest (270°)9.2 mph20.7 mph0.00 inRainLight Rain
10:54 AM75.0 °F69.1 °F82 %29.85 in4.0 miWest (260°)9.2 mph0.06 inRainRain
11:54 AM75.9 °F69.1 °F79 %29.85 in10.0 miSSW (210°)6.9 mph0.06 inOvercast
12:54 PM77.0 °F70.0 °F79 %29.83 in10.0 miSouth (190°)6.9 mphOvercast
1:54 PM78.1 °F69.1 °F74 %29.83 in10.0 miSouth (190°)6.9 mphOvercast
2:54 PM80.1 °F70.0 °F71 %29.83 in10.0 miSouth (190°)10.4 mphOvercast
3:54 PM80.1 °F70.0 °F71 %29.83 in10.0 miSouth (190°)10.4 mphOvercast
4:54 PM81.0 °F69.1 °F67 %29.83 in10.0 miWSW (250°)8.1 mphOvercast
5:54 PM80.1 °F72.0 °F76 %29.83 in10.0 miSouth (190°)8.1 mphOvercast
6:54 PM79.0 °F72.0 °F79 %29.85 in10.0 miSouth (180°)8.1 mphOvercast
7:54 PM78.1 °F69.1 °F74 %29.87 in4.0 miNorth (350°)4.6 mph0.02 inRainHeavy Rain
8:41 PM78.8 °F68.0 °F69 %29.88 in10.0 miNorth (350°)4.6 mph0.03 inMostly Cloudy
8:54 PM78.1 °F68.0 °F71 %29.88 in10.0 miNorth (350°)4.6 mph0.03 inMostly Cloudy
9:54 PM78.1 °F68.0 °F71 %29.90 in10.0 miCalmOvercast
10:54 PM75.9 °F68.0 °F76 %29.91 in10.0 miNNW (340°)9.2 mphMostly Cloudy
11:54 PM73.9 °F69.1 °F85 %29.92 in10.0 miNorth (360°)4.6 mphPartly Cloudy
Hourly data recorded from KBOS, located miles away from Boston, Massachusetts







STORIES FROM OUR PARTNERS